Hourly Data Report for May 28, 2018

DRYDEN REGIONAL
ONTARIO
Current Station Operator: NAVCAN

49°49'39.000" N
92°44'39.000" W
412.70 m
6032125
71527
YHD

Download Data

Hourly Data (May 2018)
Hourly Data Report for May 28, 2018
TIME
LST
Temp Definition
°C
Dew Point Definition
°C
Rel Hum Definition
%
Precip. Amount Definition
mm

Wind Dir Definition
10's deg

Wind Spd Definition
km/h
Visibility Definition
km
Stn Press Definition
kPa
Hmdx Definition


Wind Chill Definition


Weather Definition


00:00 17.3 14.3 83 0.0 20 15 16.1 96.40     LegendNANA
01:00 16.7 14.0 84 0.0 24 11 16.1 96.46     LegendNANA
02:00 17.1 13.7 80 0.0 32 9 16.1 96.50     LegendNANA
03:00 16.9 13.9 82 0.0 33 13 16.1 96.56     LegendNANA
04:00 16.0 13.7 86 0.0 35 9 16.1 96.60     LegendNANA
05:00 16.0 13.2 83 0.0 36 8 16.1 96.65     LegendNANA
06:00 17.0 12.5 75 0.0 1 9 16.1 96.72     LegendNANA
07:00 18.8 12.8 68 0.0 4 9 16.1 96.82     LegendNANA
08:00 20.5 13.1 62 0.0 6 11 16.1 96.88     LegendNANA
09:00 22.5 8.9 41 0.0 6 15 16.1 96.92     LegendNANA
10:00 22.9 6.1 33 0.0 5 17 16.1 96.92     LegendNANA
11:00 23.9 6.8 33 0.0 5 17 16.1 96.90     LegendNANA
12:00 24.3 5.9 30 0.0 5 17 16.1 96.87     LegendNANA
13:00 24.4 5.7 30 0.0 5 11 16.1 96.88     LegendNANA
14:00 24.8 5.4 28 0.0 9 11 16.1 96.86     LegendNANA
15:00 25.3 5.9 28 0.0 LegendMM 4 16.1 96.86 25   LegendNANA
16:00 25.5 6.1 29 0.0 10 8 16.1 96.85 25   LegendNANA
17:00 25.4 6.7 30 0.0 6 9 16.1 96.80 25   LegendNANA
18:00 24.6 7.1 32 0.0 7 13 16.1 96.79 25   LegendNANA
19:00 23.1 7.8 37 0.0 5 9 16.1 96.75     LegendNANA
20:00 21.3 8.1 42 0.0 6 4 16.1 96.73     LegendNANA
21:00 19.2 8.9 51 0.0 6 5 16.1 96.76     LegendNANA
22:00 18.4 10.0 58 0.0 7 8 16.1 96.78     LegendNANA
23:00 16.8 9.8 63 0.0 8 11 16.1 96.71     LegendNANA

Notes on Data Quality.

Legend

  • E = Estimated
  • M = Missing
  • NA = Not Available*
  • [empty] = Indicates an unobserved value
Date modified: